Wind_Speed
8 8 7 7 7 7 7 7 8 9 11 13 14 17 19 21 21 22 22 22 22 22 21 19 19 19 19 19 19 20 21 22 23 25 26 28 29 30 32 33 34 35 36 36
8 8 7 6 6 7 7 7 7 7 8 10 12 15 17 19 20 19 19 20 19 19 17 18 19 17 18 19 19 21 22 24 25 27 29 30 32 33 34 36 37 37 38 38
8 7 6 6 5 5 6 5 5 5 7 8 10 11 13 15 16 16 17 17 16 17 18 17 17 17 17 18 20 22 24 26 27 29 30 32 33 34 35 36 37 37 38 38
7 7 7 6 5 6 6 5 5 5 6 6 7 8 8 9 11 12 13 13 14 15 15 15 15 16 18 19 22 23 25 27 28 30 31 33 34 35 36 36 37 37 37 37
6 6 7 7 6 7 6 5 4 4 4 4 4 5 4 4 4 7 8 9 10 11 12 12 14 16 18 20 21 23 25 26 28 30 31 33 34 34 35 35 35 35 36 36
6 6 6 6 6 7 6 4 3 3 3 2 2 3 4 4 4 5 6 7 9 10 11 12 13 15 17 19 21 23 25 27 28 30 31 32 32 32 33 33 33 34 34 34
7 6 6 5 5 5 5 4 3 2 2 2 3 4 4 4 3 4 5 7 8 9 11 12 14 16 18 20 22 24 26 28 29 30 31 31 32 32 32 33 33 33 34 35
7 6 6 6 5 6 6 5 4 4 4 4 4 5 5 5 5 5 6 7 9 10 12 13 15 17 19 21 24 26 27 29 30 31 31 31 32 32 33 33 34 34 35 36
8 7 6 6 6 6 5 5 5 5 5 5 4 5 6 6 6 7 8 9 10 12 13 14 16 18 21 23 25 27 29 30 31 31 32 32 32 33 33 34 35 36 36 36
9 8 7 6 6 6 6 7 6 5 5 4 4 4 6 7 7 8 9 10 11 11 13 15 18 20 23 25 27 29 31 31 32 32 33 33 34 34 35 36 37 37 37 38
9 8 7 8 7 7 7 7 7 6 6 5 4 4 6 7 8 10 10 11 12 13 15 18 20 23 25 27 30 31 32 33 33 34 34 35 36 36 37 38 38 38 38 39
9 8 7 7 6 6 6 7 6 5 5 5 6 7 8 9 10 11 12 13 14 16 18 20 23 25 27 29 31 33 34 34 35 35 36 37 38 39 39 40 40 40 40 40
9 8 7 7 7 7 7 7 6 5 6 7 8 10 11 12 13 14 15 16 17 19 21 23 25 27 29 31 33 34 35 35 36 37 38 39 40 40 41 41 41 41 41 40
9 9 8 9 9 8 8 8 8 8 8 9 10 12 13 15 16 16 17 19 20 21 23 25 27 29 31 32 34 35 36 37 38 39 40 41 41 42 42 42 42 42 41 41
9 9 9 10 10 9 8 8 9 9 9 11 12 14 15 17 18 19 20 20 21 23 24 27 29 30 32 34 35 36 37 38 39 41 41 42 43 43 44 44 44 43 42 41
10 10 10 9 10 9 8 8 9 10 10 12 14 16 17 19 19 20 20 21 22 24 26 28 30 32 34 35 36 37 38 39 41 42 43 44 44 44 45 45 44 43 42 41
10 10 10 9 9 8 8 8 9 11 12 14 16 18 19 20 20 20 21 22 23 26 28 30 32 34 35 35 36 38 39 40 42 43 44 45 45 45 46 45 44 43 42 41
10 10 10 9 9 8 8 9 10 11 14 16 17 18 19 20 20 20 21 23 25 27 29 32 33 34 35 36 37 39 40 42 44 45 46 46 46 46 46 45 44 43 42 41
11 11 11 9 9 8 8 10 11 13 14 17 18 18 19 19 20 21 23 24 26 28 31 33 34 35 36 37 38 40 42 43 45 46 47 47 47 47 46 45 44 43 42 41
12 12 12 11 11 9 10 11 13 14 15 17 18 18 19 20 21 22 24 25 27 29 31 33 35 36 37 38 39 41 43 45 46 47 47 47 47 47 46 45 44 42 42 41
14 14 14 13 13 12 13 14 15 17 18 18 19 20 21 22 23 24 26 27 28 30 32 34 35 36 37 39 41 42 44 46 47 48 48 48 47 47 47 45 43 42 42 41
16 16 16 15 16 17 16 16 17 18 19 20 21 22 23 24 25 26 27 28 29 31 33 34 36 37 38 40 42 44 45 47 48 48 48 48 48 47 46 44 43 42 41 39
19 19 19 18 18 18 18 18 18 19 21 22 23 24 25 25 26 28 29 29 30 32 34 36 37 38 39 41 43 44 47 48 49 49 49 49 48 47 45 44 42 41 40 38
21 22 22 21 20 20 21 20 21 22 22 23 24 26 26 27 28 29 30 31 32 34 36 37 38 39 41 43 44 46 48 49 49 49 48 48 47 45 44 42 41 40 38 37
22 24 25 24 23 23 22 22 23 24 24 25 26 27 28 29 30 31 32 33 34 35 36 38 40 41 42 44 46 48 49 49 49 48 47 47 45 43 42 41 40 39 38 37
24 26 27 26 25 26 25 25 25 25 26 26 27 28 29 30 31 32 33 35 35 36 38 39 41 43 44 46 48 49 50 50 49 47 46 45 44 42 40 39 39 38 37 36
Wind_Direction
334 330 322 320 316 310 296 286 273 262 257 252 255 261 264 264 267 270 275 278 277 278 283 286 292 294 296 301 303 305 305 305 304 303 304 303 301 300 299 297 297 296 294 292
342 336 325 322 324 317 306 296 277 270 263 259 263 267 268 268 268 270 274 278 282 286 290 292 298 298 299 304 307 309 309 309 308 308 307 306 305 302 300 299 298 296 295 293
355 351 345 339 329 315 312 311 298 288 280 275 280 283 278 270 267 267 272 276 278 286 293 297 301 301 305 309 311 312 312 311 310 309 309 307 306 304 301 299 298 297 295 294
352 355 356 354 349 346 336 327 313 308 303 296 305 309 297 274 266 263 272 278 281 291 296 297 299 305 310 312 312 311 310 310 309 308 308 307 305 303 302 300 299 298 296 294
348 356 358 359 358 349 347 334 322 318 312 303 304 316 333 321 285 263 271 278 284 292 298 300 303 307 309 309 309 310 310 310 308 307 307 306 305 303 302 300 300 299 297 295
336 343 346 350 353 354 349 346 344 354 358 11 344 339 357 338 324 300 287 287 293 296 303 309 310 308 308 309 310 312 313 312 311 310 310 309 308 306 304 303 301 300 299 297
325 326 332 338 339 343 345 350 343 353 0 358 0 354 358 346 324 316 302 292 294 298 303 306 306 307 310 313 315 317 317 316 315 315 314 313 312 310 308 307 305 303 301 300
312 312 315 315 321 330 337 345 337 327 327 326 340 344 346 331 315 307 296 292 297 302 304 304 307 313 317 319 320 321 322 321 320 319 318 317 316 314 312 310 308 305 304 302
303 300 300 304 306 318 325 332 330 322 322 324 328 328 321 314 305 300 295 295 299 302 304 309 316 320 323 325 325 325 326 325 324 324 323 320 319 317 315 313 311 309 306 304
299 295 294 299 299 305 312 318 322 327 330 324 311 312 307 299 300 300 297 299 303 309 316 322 326 327 329 330 330 330 329 328 328 327 325 324 322 320 318 317 314 312 308 306
296 297 296 295 297 295 299 307 314 322 334 336 329 326 318 315 310 309 310 314 319 325 329 331 331 332 332 333 333 332 331 330 330 329 328 327 326 323 321 319 316 313 310 308
294 297 298 297 293 289 290 298 307 320 334 338 338 341 332 328 322 320 322 326 329 333 334 334 334 334 334 334 334 334 333 332 332 331 330 329 327 325 323 320 318 315 312 310
288 287 288 285 282 283 286 296 302 313 326 333 336 337 334 333 329 329 331 334 335 336 336 336 336 336 336 335 335 335 334 334 333 332 331 330 328 326 324 322 319 317 314 311
281 280 280 278 278 280 279 289 296 305 316 323 328 330 329 331 333 333 335 336 336 336 336 337 337 337 337 336 336 335 335 335 334 333 331 330 329 327 325 323 320 318 315 312
280 279 277 278 281 281 278 285 294 301 308 313 319 322 325 328 331 333 333 333 334 334 335 337 338 338 337 336 336 336 336 335 334 333 332 331 329 327 326 323 321 319 317 314
278 279 279 281 285 286 286 291 292 296 303 310 314 317 320 324 328 330 330 330 331 333 335 337 337 337 337 336 336 335 335 335 334 333 332 331 329 328 326 324 322 320 318 315
275 273 276 283 289 291 296 297 298 299 301 306 309 313 317 321 325 327 328 329 331 333 335 336 337 336 335 335 335 335 335 334 334 333 332 331 330 328 327 325 323 321 319 317
271 271 275 281 286 293 303 298 299 302 303 303 307 311 316 320 323 325 327 329 331 332 334 335 335 335 334 334 334 334 334 334 334 333 333 331 330 329 328 326 324 323 321 318
269 271 274 280 286 291 296 299 300 299 300 304 309 312 316 319 322 323 326 328 329 331 332 333 333 333 334 333 333 334 334 334 334 333 333 332 331 330 329 327 325 324 322 321
266 271 274 279 288 294 299 300 302 300 303 306 310 313 316 319 321 323 324 326 328 329 330 331 332 333 333 333 333 333 333 333 334 333 333 332 331 331 330 328 326 325 324 322
266 271 275 279 286 296 300 302 302 307 308 308 312 315 317 319 320 321 322 323 325 326 328 329 330 331 332 332 333 333 333 333 333 333 333 332 332 332 331 330 328 326 325 324
265 270 275 281 288 295 296 300 302 304 305 308 311 314 315 316 317 318 320 321 322 324 327 328 329 330 331 333 333 333 332 332 332 332 332 332 333 333 332 331 330 329 328 327
267 272 277 283 288 292 294 297 299 301 304 306 308 310 311 313 314 315 317 318 321 323 325 327 329 330 330 331 333 332 332 332 332 332 332 332 333 333 334 333 332 332 331 331
270 276 279 283 287 289 291 293 296 297 299 301 303 305 307 309 311 313 315 317 320 323 324 327 328 329 330 330 331 331 331 332 332 332 332 333 334 334 335 335 335 335 334 333
272 274 275 278 282 282 284 288 291 294 296 298 299 301 304 306 309 312 314 316 319 322 324 326 328 329 330 331 331 332 332 332 332 332 332 333 334 335 335 335 336 336 336 336
268 270 272 276 278 280 284 287 290 292 293 295 297 299 302 305 309 311 313 315 318 321 324 325 327 328 329 329 330 331 332 332 332 333 333 333 334 335 335 336 336 337 338 339
Height
5863 5862 5860 5859 5858 5856 5855 5854 5853 5853 5852 5853 5853 5854 5853 5853 5854 5855 5855 5854 5853 5853 5853 5853 5852 5851 5850 5849 5848 5847 5845 5843 5842 5840 5838 5836 5834 5832 5830 5828 5825 5823 5821 5819
5863 5861 5859 5858 5857 5855 5854 5853 5852 5852 5851 5851 5851 5851 5850 5849 5849 5850 5850 5850 5850 5850 5849 5849 5848 5847 5847 5845 5843 5842 5840 5838 5836 5834 5831 5829 5827 5824 5822 5820 5817 5814 5812 5809
5862 5861 5859 5858 5856 5855 5854 5853 5852 5851 5850 5850 5849 5849 5847 5846 5845 5846 5847 5847 5847 5847 5846 5845 5845 5844 5842 5841 5840 5838 5836 5833 5831 5828 5825 5822 5819 5816 5814 5811 5808 5805 5802 5800
5862 5860 5859 5857 5856 5855 5854 5853 5852 5851 5850 5849 5849 5847 5845 5843 5843 5843 5844 5844 5844 5844 5843 5842 5842 5841 5839 5838 5836 5834 5832 5829 5826 5823 5819 5816 5812 5809 5806 5802 5799 5796 5793 5790
5862 5860 5859 5858 5857 5855 5854 5853 5852 5851 5850 5849 5848 5847 5845 5843 5842 5842 5842 5841 5842 5842 5841 5840 5839 5838 5837 5835 5833 5831 5828 5824 5821 5817 5813 5809 5805 5801 5798 5794 5790 5787 5784 5781
5862 5861 5860 5858 5857 5856 5854 5853 5852 5851 5850 5849 5848 5847 5845 5843 5842 5841 5841 5841 5841 5840 5839 5838 5837 5836 5834 5832 5830 5827 5823 5819 5815 5811 5807 5802 5798 5794 5790 5786 5782 5779 5775 5772
5862 5861 5859 5858 5857 5856 5855 5854 5853 5851 5850 5850 5848 5847 5846 5844 5842 5841 5841 5840 5839 5838 5837 5836 5835 5833 5831 5828 5825 5822 5818 5813 5809 5804 5800 5795 5790 5786 5782 5778 5774 5770 5766 5762
5861 5860 5859 5857 5856 5855 5854 5854 5853 5852 5850 5850 5848 5847 5847 5844 5843 5842 5841 5840 5838 5837 5836 5834 5832 5830 5827 5824 5820 5816 5811 5807 5802 5797 5792 5787 5783 5778 5773 5769 5765 5761 5757 5753
5859 5858 5857 5856 5855 5854 5853 5852 5852 5851 5850 5849 5848 5847 5846 5844 5843 5841 5840 5838 5837 5835 5833 5831 5829 5826 5822 5818 5814 5809 5805 5800 5795 5790 5785 5780 5775 5770 5765 5760 5756 5751 5747 5743
5857 5856 5855 5855 5854 5853 5852 5851 5851 5850 5849 5848 5847 5846 5845 5843 5841 5840 5838 5836 5835 5833 5830 5827 5824 5821 5817 5812 5808 5803 5798 5793 5788 5783 5778 5772 5767 5762 5757 5751 5746 5741 5736 5732
5855 5854 5854 5853 5852 5851 5851 5851 5849 5849 5848 5847 5846 5847 5843 5841 5839 5838 5836 5834 5831 5829 5826 5823 5819 5815 5811 5807 5802 5797 5792 5787 5781 5776 5770 5765 5759 5753 5748 5742 5736 5731 5726 5721
5853 5852 5851 5851 5850 5850 5849 5849 5848 5848 5847 5845 5844 5846 5841 5839 5837 5835 5833 5830 5827 5825 5822 5818 5814 5810 5806 5801 5796 5791 5786 5780 5774 5768 5763 5757 5751 5745 5739 5733 5727 5721 5716 5710
5851 5851 5850 5849 5850 5849 5848 5847 5847 5846 5845 5843 5842 5843 5839 5836 5834 5831 5829 5826 5823 5820 5817 5813 5809 5805 5800 5795 5790 5785 5779 5773 5767 5761 5755 5749 5742 5736 5730 5723 5717 5711 5705 5699
5849 5848 5848 5848 5847 5846 5846 5845 5844 5843 5842 5841 5840 5838 5836 5833 5830 5827 5824 5821 5818 5815 5812 5808 5804 5799 5794 5789 5784 5779 5773 5767 5761 5754 5748 5741 5734 5728 5721 5714 5707 5701 5694 5689
5846 5846 5845 5844 5844 5843 5843 5843 5841 5841 5840 5838 5837 5834 5832 5829 5826 5823 5820 5817 5814 5811 5808 5804 5799 5794 5789 5784 5778 5773 5767 5761 5754 5748 5741 5734 5726 5719 5712 5705 5697 5691 5684 5678
5844 5843 5843 5842 5841 5840 5840 5839 5838 5837 5836 5835 5833 5831 5828 5825 5822 5819 5816 5813 5811 5807 5803 5799 5794 5789 5784 5778 5773 5767 5761 5755 5748 5741 5733 5726 5718 5710 5703 5695 5688 5681 5674 5667
5841 5841 5840 5840 5839 5838 5838 5837 5835 5834 5833 5831 5829 5827 5824 5821 5818 5815 5813 5810 5806 5802 5798 5794 5789 5784 5779 5773 5767 5761 5755 5748 5741 5733 5726 5718 5710 5702 5694 5686 5678 5671 5664 5657
5839 5838 5838 5837 5837 5836 5837 5834 5832 5831 5829 5827 5825 5822 5820 5817 5814 5812 5809 5805 5801 5797 5793 5788 5784 5779 5773 5768 5761 5755 5748 5741 5734 5726 5718 5710 5702 5693 5685 5677 5669 5661 5654 5646
5835 5835 5835 5834 5834 5833 5833 5831 5829 5828 5826 5823 5821 5818 5816 5813 5810 5807 5804 5801 5797 5793 5788 5784 5779 5774 5768 5762 5755 5749 5742 5734 5727 5719 5710 5702 5693 5685 5676 5668 5660 5652 5644 5636
5832 5832 5832 5831 5830 5830 5830 5828 5825 5824 5822 5819 5816 5814 5811 5808 5806 5803 5799 5796 5792 5788 5783 5778 5773 5768 5762 5756 5749 5743 5735 5728 5720 5711 5703 5694 5686 5677 5668 5659 5651 5643 5635 5627
5828 5828 5827 5827 5826 5825 5825 5823 5821 5820 5817 5814 5811 5809 5806 5804 5801 5798 5794 5791 5787 5782 5778 5773 5768 5762 5756 5750 5743 5736 5729 5721 5712 5704 5695 5687 5678 5669 5660 5651 5642 5634 5626 5618
5823 5823 5823 5822 5821 5822 5820 5818 5816 5814 5811 5808 5806 5803 5801 5798 5795 5792 5789 5785 5781 5777 5772 5767 5762 5756 5750 5744 5737 5729 5722 5714 5706 5697 5688 5679 5670 5661 5652 5643 5634 5626 5618 5610
5818 5818 5817 5818 5818 5816 5814 5812 5810 5808 5806 5803 5801 5798 5796 5793 5790 5787 5783 5780 5776 5771 5766 5761 5756 5750 5743 5737 5730 5723 5715 5707 5698 5689 5681 5672 5662 5653 5645 5636 5628 5619 5610 5602
5812 5812 5811 5811 5810 5809 5808 5806 5804 5802 5800 5798 5796 5793 5790 5787 5784 5781 5777 5773 5769 5765 5760 5754 5749 5743 5737 5730 5723 5716 5708 5700 5691 5682 5673 5665 5656 5647 5638 5629 5621 5613 5605 5597
5807 5805 5804 5803 5804 5802 5801 5800 5798 5796 5794 5792 5789 5787 5784 5781 5777 5774 5770 5766 5762 5757 5753 5747 5742 5736 5730 5723 5716 5709 5701 5693 5684 5675 5667 5658 5649 5641 5633 5624 5616 5608 5599 5591
5800 5798 5797 5796 5797 5795 5795 5793 5791 5789 5787 5785 5783 5780 5777 5774 5771 5767 5763 5759 5755 5750 5745 5740 5734 5729 5723 5716 5709 5702 5694 5686 5677 5669 5660 5652 5644 5636 5628 5620 5611 5603 5595 5587